Time,TemperatureF,DewpointF,PressureIn,WindDirection,WindDirectionDegrees,WindSpeedMPH,WindSpeedGustMPH,Humidity,HourlyPrecipIn,Conditions,Clouds,dailyrainin,SoftwareType,DateUTC
2013-05-01 00:01:00,48.4,42.2,30.36,NW,321,6.0,6.0,79,0.00,,,0.00,Wunderground v.1.15,2013-05-01 04:01:00,
2013-05-01 00:06:00,48.6,41.4,30.36,NW,321,6.0,7.0,76,0.00,,,0.00,Wunderground v.1.15,2013-05-01 04:06:00,
2013-05-01 00:11:00,48.7,43.1,30.35,NNW,328,4.0,6.0,81,0.00,,,0.00,Wunderground v.1.15,2013-05-01 04:11:00,
2013-05-01 00:16:00,48.6,43.0,30.36,NNW,334,5.0,6.0,81,0.00,,,0.00,Wunderground v.1.15,2013-05-01 04:16:00,
2013-05-01 00:21:00,48.5,42.0,30.35,NW,314,5.0,5.0,78,0.00,,,0.00,Wunderground v.1.15,2013-05-01 04:21:00,
2013-05-01 00:26:00,48.7,41.5,30.35,NW,311,6.0,6.0,76,0.00,,,0.00,Wunderground v.1.15,2013-05-01 04:26:00,
2013-05-01 00:31:00,48.7,41.5,30.35,NW,304,5.0,6.0,76,0.00,,,0.00,Wunderground v.1.15,2013-05-01 04:31:00,
2013-05-01 00:36:00,48.7,41.8,30.35,NW,307,5.0,6.0,77,0.00,,,0.00,Wunderground v.1.15,2013-05-01 04:36:00,
2013-05-01 00:41:00,48.7,42.1,30.35,NW,321,5.0,5.0,78,0.00,,,0.00,Wunderground v.1.15,2013-05-01 04:41:00,
2013-05-01 00:46:00,48.6,41.7,30.35,WNW,298,4.0,5.0,77,0.00,,,0.00,Wunderground v.1.15,2013-05-01 04:46:00,
2013-05-01 00:51:00,48.5,41.3,30.35,West,277,5.0,5.0,76,0.00,,,0.00,Wunderground v.1.15,2013-05-01 04:51:00,
2013-05-01 00:56:00,48.5,40.9,30.35,West,277,5.0,8.0,75,0.00,,,0.00,Wunderground v.1.15,2013-05-01 04:56:00,
2013-05-01 01:01:00,48.4,40.5,30.35,West,271,6.0,7.0,74,0.00,,,0.00,Wunderground v.1.15,2013-05-01 05:01:00,
2013-05-01 01:06:00,48.4,40.8,30.35,West,260,7.0,8.0,75,0.00,,,0.00,Wunderground v.1.15,2013-05-01 05:06:00,
2013-05-01 01:11:00,48.3,40.4,30.35,WSW,252,9.0,10.0,74,0.00,,,0.00,Wunderground v.1.15,2013-05-01 05:11:00,
2013-05-01 01:16:00,48.3,39.7,30.35,WSW,256,9.0,10.0,72,0.00,,,0.00,Wunderground v.1.15,2013-05-01 05:16:00,
2013-05-01 01:21:00,48.4,39.8,30.35,WSW,257,8.0,10.0,72,0.00,,,0.00,Wunderground v.1.15,2013-05-01 05:21:00,
2013-05-01 01:26:00,48.4,38.7,30.35,WSW,252,10.0,10.0,69,0.00,,,0.00,Wunderground v.1.15,2013-05-01 05:26:00,
2013-05-01 01:31:00,48.5,39.2,30.35,West,265,8.0,10.0,70,0.00,,,0.00,Wunderground v.1.15,2013-05-01 05:31:00,
2013-05-01 01:36:00,48.4,39.8,30.35,West,260,8.0,10.0,72,0.00,,,0.00,Wunderground v.1.15,2013-05-01 05:36:00,
2013-05-01 01:41:00,48.4,39.8,30.35,WSW,257,9.0,10.0,72,0.00,,,0.00,Wunderground v.1.15,2013-05-01 05:41:00,
2013-05-01 01:46:00,48.3,39.7,30.35,West,262,8.0,10.0,72,0.00,,,0.00,Wunderground v.1.15,2013-05-01 05:46:00,
2013-05-01 01:51:00,48.3,39.3,30.35,West,265,8.0,9.0,71,0.00,,,0.00,Wunderground v.1.15,2013-05-01 05:51:00,
2013-05-01 01:56:00,48.3,39.7,30.35,WSW,252,8.0,9.0,72,0.00,,,0.00,Wunderground v.1.15,2013-05-01 05:56:00,
2013-05-01 02:01:00,48.1,40.2,30.35,WSW,250,8.0,9.0,74,0.00,,,0.00,Wunderground v.1.15,2013-05-01 06:01:00,
2013-05-01 02:06:00,48.1,40.2,30.35,WSW,257,8.0,9.0,74,0.00,,,0.00,Wunderground v.1.15,2013-05-01 06:06:00,
2013-05-01 02:11:00,48.0,40.5,30.35,WSW,255,7.0,8.0,75,0.00,,,0.00,Wunderground v.1.15,2013-05-01 06:11:00,
2013-05-01 02:16:00,47.9,40.4,30.35,West,266,7.0,8.0,75,0.00,,,0.00,Wunderground v.1.15,2013-05-01 06:16:00,
2013-05-01 02:21:00,47.9,40.4,30.35,West,266,6.0,7.0,75,0.00,,,0.00,Wunderground v.1.15,2013-05-01 06:21:00,
2013-05-01 02:26:00,47.9,40.7,30.35,West,281,5.0,7.0,76,0.00,,,0.00,Wunderground v.1.15,2013-05-01 06:26:00,
2013-05-01 02:31:00,47.9,40.7,30.35,WNW,283,6.0,6.0,76,0.00,,,0.00,Wunderground v.1.15,2013-05-01 06:31:00,
2013-05-01 02:36:00,47.8,40.6,30.35,WNW,291,7.0,7.0,76,0.00,,,0.00,Wunderground v.1.15,2013-05-01 06:36:00,
2013-05-01 02:41:00,47.9,40.7,30.35,NW,304,6.0,7.0,76,0.00,,,0.00,Wunderground v.1.15,2013-05-01 06:41:00,
2013-05-01 02:46:00,47.9,41.0,30.36,NW,316,6.0,7.0,77,0.00,,,0.00,Wunderground v.1.15,2013-05-01 06:46:00,
2013-05-01 02:51:00,47.9,41.4,30.35,NW,319,6.0,7.0,78,0.00,,,0.00,Wunderground v.1.15,2013-05-01 06:51:00,
2013-05-01 02:56:00,47.9,41.0,30.35,NW,316,8.0,8.0,77,0.00,,,0.00,Wunderground v.1.15,2013-05-01 06:56:00,
2013-05-01 03:01:00,48.0,41.5,30.35,NW,324,6.0,7.0,78,0.00,,,0.00,Wunderground v.1.15,2013-05-01 07:01:00,
2013-05-01 03:06:00,48.0,41.8,30.36,NW,323,6.0,7.0,79,0.00,,,0.00,Wunderground v.1.15,2013-05-01 07:06:00,
2013-05-01 03:11:00,48.0,41.8,30.36,NW,324,5.0,6.0,79,0.00,,,0.00,Wunderground v.1.15,2013-05-01 07:11:00,
2013-05-01 03:16:00,48.1,40.9,30.36,NW,320,4.0,6.0,76,0.00,,,0.00,Wunderground v.1.15,2013-05-01 07:16:00,
2013-05-01 03:21:00,48.1,40.2,30.36,NW,312,3.0,5.0,74,0.00,,,0.00,Wunderground v.1.15,2013-05-01 07:21:00,
2013-05-01 03:26:00,48.3,39.7,30.36,WNW,291,3.0,5.0,72,0.00,,,0.00,Wunderground v.1.15,2013-05-01 07:26:00,
2013-05-01 03:31:00,48.3,40.0,30.36,West,260,4.0,4.0,73,0.00,,,0.00,Wunderground v.1.15,2013-05-01 07:31:00,
2013-05-01 03:36:00,48.1,40.2,30.36,SW,229,5.0,5.0,74,0.00,,,0.00,Wunderground v.1.15,2013-05-01 07:36:00,
2013-05-01 03:41:00,47.9,40.7,30.36,SW,235,4.0,4.0,76,0.00,,,0.00,Wunderground v.1.15,2013-05-01 07:41:00,
2013-05-01 03:46:00,47.7,40.5,30.36,WSW,248,4.0,5.0,76,0.00,,,0.00,Wunderground v.1.15,2013-05-01 07:46:00,
2013-05-01 03:51:00,47.9,41.0,30.36,West,259,4.0,4.0,77,0.00,,,0.00,Wunderground v.1.15,2013-05-01 07:51:00,
2013-05-01 03:56:00,47.9,41.0,30.37,West,264,4.0,5.0,77,0.00,,,0.00,Wunderground v.1.15,2013-05-01 07:56:00,
2013-05-01 04:01:00,48.0,40.1,30.37,West,276,3.0,4.0,74,0.00,,,0.00,Wunderground v.1.15,2013-05-01 08:01:00,
2013-05-01 04:06:00,48.1,40.2,30.37,WNW,299,2.0,4.0,74,0.00,,,0.00,Wunderground v.1.15,2013-05-01 08:06:00,
2013-05-01 04:11:00,48.2,40.3,30.37,NW,321,3.0,3.0,74,0.00,,,0.00,Wunderground v.1.15,2013-05-01 08:11:00,
2013-05-01 04:16:00,48.1,40.9,30.37,NNW,338,3.0,3.0,76,0.00,,,0.00,Wunderground v.1.15,2013-05-01 08:16:00,
2013-05-01 04:21:00,47.9,41.7,30.37,NNW,348,4.0,4.0,79,0.00,,,0.00,Wunderground v.1.15,2013-05-01 08:21:00,
2013-05-01 04:26:00,47.7,42.2,30.38,North,4,5.0,5.0,81,0.00,,,0.00,Wunderground v.1.15,2013-05-01 08:26:00,
2013-05-01 04:31:00,47.6,43.0,30.38,NNE,33,10.0,10.0,84,0.00,,,0.00,Wunderground v.1.15,2013-05-01 08:31:00,
2013-05-01 04:36:00,46.8,43.4,30.38,ENE,77,11.0,11.0,88,0.00,,,0.00,Wunderground v.1.15,2013-05-01 08:36:00,
2013-05-01 04:41:00,46.2,42.8,30.38,NE,40,9.0,12.0,88,0.00,,,0.00,Wunderground v.1.15,2013-05-01 08:41:00,
2013-05-01 04:46:00,45.9,41.9,30.38,NE,36,11.0,13.0,86,0.00,,,0.00,Wunderground v.1.15,2013-05-01 08:46:00,
2013-05-01 04:50:00,45.9,42.2,30.38,ENE,63,11.0,11.0,87,0.00,,,0.00,Wunderground v.1.15,2013-05-01 08:50:00,
2013-05-01 04:55:00,45.7,42.3,30.38,NE,43,9.0,11.0,88,0.00,,,0.00,Wunderground v.1.15,2013-05-01 08:55:00,
2013-05-01 05:00:00,45.3,41.7,30.38,NE,39,9.0,10.0,87,0.00,,,0.00,Wunderground v.1.15,2013-05-01 09:00:00,
2013-05-01 05:05:00,45.0,41.7,30.38,NE,49,9.0,10.0,88,0.00,,,0.00,Wunderground v.1.15,2013-05-01 09:05:00,
2013-05-01 05:10:00,44.9,41.3,30.38,ENE,75,11.0,11.0,87,0.00,,,0.00,Wunderground v.1.15,2013-05-01 09:10:00,
2013-05-01 05:15:00,44.9,41.3,30.38,NNE,23,8.0,11.0,87,0.00,,,0.00,Wunderground v.1.15,2013-05-01 09:15:00,
2013-05-01 05:20:00,44.8,40.9,30.39,ENE,57,10.0,11.0,86,0.00,,,0.00,Wunderground v.1.15,2013-05-01 09:20:00,
2013-05-01 05:25:00,44.8,40.9,30.39,ENE,60,8.0,11.0,86,0.00,,,0.00,Wunderground v.1.15,2013-05-01 09:25:00,
2013-05-01 05:30:00,44.8,40.6,30.39,ENE,69,7.0,8.0,85,0.00,,,0.00,Wunderground v.1.15,2013-05-01 09:30:00,
2013-05-01 05:35:00,44.9,40.4,30.39,East,84,6.0,8.0,84,0.00,,,0.00,Wunderground v.1.15,2013-05-01 09:35:00,
2013-05-01 05:40:00,45.1,39.9,30.39,East,90,6.0,7.0,82,0.00,,,0.00,Wunderground v.1.15,2013-05-01 09:40:00,
2013-05-01 05:45:00,45.4,38.6,30.39,ENE,75,5.0,7.0,77,0.00,,,0.00,Wunderground v.1.15,2013-05-01 09:45:00,
2013-05-01 05:50:00,45.9,38.1,30.39,East,85,5.0,5.0,74,0.00,,,0.00,Wunderground v.1.15,2013-05-01 09:50:00,
2013-05-01 05:55:00,46.3,37.8,30.39,East,88,4.0,5.0,72,0.00,,,0.00,Wunderground v.1.15,2013-05-01 09:55:00,
2013-05-01 06:00:00,46.4,39.2,30.39,ENE,77,5.0,5.0,76,0.00,,,0.00,Wunderground v.1.15,2013-05-01 10:00:00,
2013-05-01 06:05:00,46.4,39.2,30.39,East,80,5.0,5.0,76,0.00,,,0.00,Wunderground v.1.15,2013-05-01 10:05:00,
2013-05-01 06:10:00,46.5,39.3,30.40,ENE,74,4.0,4.0,76,0.00,,,0.00,Wunderground v.1.15,2013-05-01 10:10:00,
2013-05-01 06:15:00,46.6,39.4,30.39,East,90,3.0,4.0,76,0.00,,,0.00,Wunderground v.1.15,2013-05-01 10:15:00,
2013-05-01 06:20:00,46.8,37.5,30.40,ENE,74,2.0,3.0,70,0.00,,,0.00,Wunderground v.1.15,2013-05-01 10:20:00,
2013-05-01 06:25:00,47.3,36.9,30.40,ENE,72,2.0,3.0,67,0.00,,,0.00,Wunderground v.1.15,2013-05-01 10:25:00,
2013-05-01 06:30:00,47.7,35.7,30.40,ENE,72,3.0,3.0,63,0.00,,,0.00,Wunderground v.1.15,2013-05-01 10:30:00,
2013-05-01 06:35:00,47.8,37.0,30.40,ESE,104,3.0,3.0,66,0.00,,,0.00,Wunderground v.1.15,2013-05-01 10:35:00,
2013-05-01 06:40:00,47.9,36.3,30.40,East,86,3.0,3.0,64,0.00,,,0.00,Wunderground v.1.15,2013-05-01 10:40:00,
2013-05-01 06:45:00,47.8,37.7,30.40,East,99,4.0,4.0,68,0.00,,,0.00,Wunderground v.1.15,2013-05-01 10:45:00,
2013-05-01 06:50:00,47.6,38.3,30.40,ESE,103,3.0,4.0,70,0.00,,,0.00,Wunderground v.1.15,2013-05-01 10:50:00,
2013-05-01 06:55:00,47.5,39.6,30.40,East,91,4.0,4.0,74,0.00,,,0.00,Wunderground v.1.15,2013-05-01 10:55:00,
2013-05-01 07:00:00,47.3,39.8,30.40,ESE,108,3.0,3.0,75,0.00,,,0.00,Wunderground v.1.15,2013-05-01 11:00:00,
2013-05-01 07:05:00,47.4,39.5,30.41,ESE,122,2.0,3.0,74,0.00,,,0.00,Wunderground v.1.15,2013-05-01 11:05:00,
2013-05-01 07:10:00,47.8,40.6,30.41,ESE,121,2.0,2.0,76,0.00,,,0.00,Wunderground v.1.15,2013-05-01 11:10:00,
2013-05-01 07:15:00,48.2,40.6,30.41,SE,127,2.0,2.0,75,0.00,,,0.00,Wunderground v.1.15,2013-05-01 11:15:00,
2013-05-01 07:20:00,48.5,40.2,30.41,SE,140,3.0,3.0,73,0.00,,,0.00,Wunderground v.1.15,2013-05-01 11:20:00,
2013-05-01 07:25:00,48.8,40.5,30.41,SE,128,3.0,3.0,73,0.00,,,0.00,Wunderground v.1.15,2013-05-01 11:25:00,
2013-05-01 07:30:00,49.0,41.8,30.41,SSE,159,2.0,3.0,76,0.00,,,0.00,Wunderground v.1.15,2013-05-01 11:30:00,
2013-05-01 07:35:00,48.9,41.0,30.41,SSE,155,2.0,4.0,74,0.00,,,0.00,Wunderground v.1.15,2013-05-01 11:35:00,
2013-05-01 07:40:00,48.8,41.9,30.42,South,174,3.0,4.0,77,0.00,,,0.00,Wunderground v.1.15,2013-05-01 11:40:00,
2013-05-01 07:45:00,48.9,42.7,30.42,South,186,3.0,5.0,79,0.00,,,0.00,Wunderground v.1.15,2013-05-01 11:45:00,
2013-05-01 07:50:00,48.8,42.6,30.42,South,186,4.0,4.0,79,0.00,,,0.00,Wunderground v.1.15,2013-05-01 11:50:00,
2013-05-01 07:55:00,48.8,41.6,30.42,South,180,5.0,5.0,76,0.00,,,0.00,Wunderground v.1.15,2013-05-01 11:55:00,
2013-05-01 08:00:00,49.0,41.8,30.42,South,177,4.0,5.0,76,0.00,,,0.00,Wunderground v.1.15,2013-05-01 12:00:00,
2013-05-01 08:05:00,49.1,42.2,30.42,South,184,3.0,5.0,77,0.00,,,0.00,Wunderground v.1.15,2013-05-01 12:05:00,
2013-05-01 08:10:00,49.2,42.3,30.42,SSW,200,3.0,5.0,77,0.00,,,0.00,Wunderground v.1.15,2013-05-01 12:10:00,
2013-05-01 08:15:00,49.3,43.4,30.43,SSW,194,3.0,6.0,80,0.00,,,0.00,Wunderground v.1.15,2013-05-01 12:15:00,
2013-05-01 08:20:00,49.5,42.9,30.42,South,184,4.0,5.0,78,0.00,,,0.00,Wunderground v.1.15,2013-05-01 12:20:00,
2013-05-01 08:25:00,49.5,43.6,30.42,SSW,203,4.0,5.0,80,0.00,,,0.00,Wunderground v.1.15,2013-05-01 12:25:00,
2013-05-01 08:30:00,49.5,41.9,30.42,South,172,5.0,6.0,75,0.00,,,0.00,Wunderground v.1.15,2013-05-01 12:30:00,
2013-05-01 08:35:00,49.5,42.9,30.42,SSW,193,5.0,6.0,78,0.00,,,0.00,Wunderground v.1.15,2013-05-01 12:35:00,
2013-05-01 08:40:00,49.5,43.3,30.43,SSW,203,6.0,6.0,79,0.00,,,0.00,Wunderground v.1.15,2013-05-01 12:40:00,
2013-05-01 08:45:00,49.4,41.1,30.43,SSW,194,4.0,7.0,73,0.00,,,0.00,Wunderground v.1.15,2013-05-01 12:45:00,
2013-05-01 08:50:00,49.6,43.4,30.43,SSW,194,5.0,5.0,79,0.00,,,0.00,Wunderground v.1.15,2013-05-01 12:50:00,
2013-05-01 08:55:00,49.7,44.1,30.42,SSW,197,4.0,6.0,81,0.00,,,0.00,Wunderground v.1.15,2013-05-01 12:55:00,
2013-05-01 09:00:00,49.6,43.4,30.43,SSW,200,6.0,6.0,79,0.00,,,0.00,Wunderground v.1.15,2013-05-01 13:00:00,
2013-05-01 09:05:00,49.9,44.0,30.43,SSW,203,6.0,8.0,80,0.00,,,0.00,Wunderground v.1.15,2013-05-01 13:05:00,
2013-05-01 09:10:00,50.3,44.0,30.43,SW,221,6.0,8.0,79,0.00,,,0.00,Wunderground v.1.15,2013-05-01 13:10:00,
2013-05-01 09:15:00,50.4,44.8,30.43,SW,233,7.0,8.0,81,0.00,,,0.00,Wunderground v.1.15,2013-05-01 13:15:00,
2013-05-01 09:20:00,50.3,43.7,30.43,SW,214,7.0,8.0,78,0.00,,,0.00,Wunderground v.1.15,2013-05-01 13:20:00,
2013-05-01 09:25:00,50.7,45.4,30.43,WSW,240,7.0,10.0,82,0.00,,,0.00,Wunderground v.1.15,2013-05-01 13:25:00,
2013-05-01 09:30:00,50.8,45.5,30.44,West,266,6.0,8.0,82,0.00,,,0.00,Wunderground v.1.15,2013-05-01 13:30:00,
2013-05-01 09:35:00,51.0,45.4,30.44,West,280,4.0,8.0,81,0.00,,,0.00,Wunderground v.1.15,2013-05-01 13:35:00,
2013-05-01 09:40:00,51.0,45.4,30.44,WSW,238,8.0,8.0,81,0.00,,,0.00,Wunderground v.1.15,2013-05-01 13:40:00,
2013-05-01 09:45:00,50.6,45.3,30.44,West,266,5.0,8.0,82,0.00,,,0.00,Wunderground v.1.15,2013-05-01 13:45:00,
2013-05-01 09:50:00,50.8,45.5,30.44,West,260,6.0,8.0,82,0.00,,,0.00,Wunderground v.1.15,2013-05-01 13:50:00,
2013-05-01 09:55:00,50.4,44.8,30.45,WSW,245,8.0,8.0,81,0.00,,,0.00,Wunderground v.1.15,2013-05-01 13:55:00,
2013-05-01 10:00:00,50.2,44.9,30.45,SW,228,8.0,8.0,82,0.00,,,0.00,Wunderground v.1.15,2013-05-01 14:00:00,
2013-05-01 10:05:00,50.1,45.1,30.45,WSW,257,7.0,8.0,83,0.00,,,0.00,Wunderground v.1.15,2013-05-01 14:05:00,
2013-05-01 10:10:00,49.8,44.5,30.45,WSW,250,7.0,8.0,82,0.00,,,0.00,Wunderground v.1.15,2013-05-01 14:10:00,
2013-05-01 10:15:00,49.8,44.5,30.45,West,266,7.0,9.0,82,0.00,,,0.00,Wunderground v.1.15,2013-05-01 14:15:00,
2013-05-01 10:20:00,50.0,44.7,30.45,WSW,250,6.0,8.0,82,0.00,,,0.00,Wunderground v.1.15,2013-05-01 14:20:00,
2013-05-01 10:25:00,50.4,44.8,30.45,SW,231,5.0,9.0,81,0.00,,,0.00,Wunderground v.1.15,2013-05-01 14:25:00,
2013-05-01 10:30:00,50.4,44.1,30.45,WSW,254,7.0,8.0,79,0.00,,,0.00,Wunderground v.1.15,2013-05-01 14:30:00,
2013-05-01 10:35:00,50.1,44.5,30.45,WSW,257,7.0,9.0,81,0.00,,,0.00,Wunderground v.1.15,2013-05-01 14:35:00,
2013-05-01 10:40:00,50.2,43.3,30.46,WSW,257,7.0,8.0,77,0.00,,,0.00,Wunderground v.1.15,2013-05-01 14:40:00,
2013-05-01 10:45:00,50.7,44.8,30.45,West,260,5.0,9.0,80,0.00,,,0.00,Wunderground v.1.15,2013-05-01 14:45:00,
2013-05-01 10:50:00,51.0,44.4,30.46,West,262,8.0,9.0,78,0.00,,,0.00,Wunderground v.1.15,2013-05-01 14:50:00,
2013-05-01 10:55:00,51.0,44.4,30.45,West,271,6.0,10.0,78,0.00,,,0.00,Wunderground v.1.15,2013-05-01 14:55:00,
2013-05-01 11:00:00,51.2,44.6,30.45,WSW,252,5.0,8.0,78,0.00,,,0.00,Wunderground v.1.15,2013-05-01 15:00:00,
2013-05-01 11:05:00,51.3,44.7,30.45,WSW,257,7.0,11.0,78,0.00,,,0.00,Wunderground v.1.15,2013-05-01 15:05:00,
2013-05-01 11:10:00,51.1,44.8,30.45,WSW,252,10.0,10.0,79,0.00,,,0.00,Wunderground v.1.15,2013-05-01 15:10:00,
2013-05-01 11:15:00,51.0,44.4,30.45,WSW,252,10.0,11.0,78,0.00,,,0.00,Wunderground v.1.15,2013-05-01 15:15:00,
2013-05-01 11:20:00,51.1,43.8,30.45,WSW,246,11.0,11.0,76,0.00,,,0.00,Wunderground v.1.15,2013-05-01 15:20:00,
2013-05-01 11:25:00,51.4,44.8,30.45,WSW,257,11.0,12.0,78,0.00,,,0.00,Wunderground v.1.15,2013-05-01 15:25:00,
2013-05-01 11:30:00,51.3,44.0,30.45,West,259,6.0,11.0,76,0.00,,,0.00,Wunderground v.1.15,2013-05-01 15:30:00,
2013-05-01 11:35:00,51.7,44.7,30.45,WSW,256,10.0,12.0,77,0.00,,,0.00,Wunderground v.1.15,2013-05-01 15:35:00,
2013-05-01 11:40:00,52.0,45.4,30.44,WSW,255,7.0,8.0,78,0.00,,,0.00,Wunderground v.1.15,2013-05-01 15:40:00,
2013-05-01 11:45:00,52.0,45.0,30.44,WSW,240,7.0,12.0,77,0.00,,,0.00,Wunderground v.1.15,2013-05-01 15:45:00,
2013-05-01 11:50:00,52.0,44.3,30.44,West,263,7.0,10.0,75,0.00,,,0.00,Wunderground v.1.15,2013-05-01 15:50:00,
2013-05-01 11:55:00,52.0,44.0,30.44,WSW,240,11.0,12.0,74,0.00,,,0.00,Wunderground v.1.15,2013-05-01 15:55:00,
2013-05-01 12:00:00,51.9,43.5,30.44,SW,232,10.0,11.0,73,0.00,,,0.00,Wunderground v.1.15,2013-05-01 16:00:00,
2013-05-01 12:05:00,52.1,44.1,30.45,WSW,240,11.0,13.0,74,0.00,,,0.00,Wunderground v.1.15,2013-05-01 16:05:00,
2013-05-01 12:10:00,51.9,43.2,30.44,SW,235,12.0,13.0,72,0.00,,,0.00,Wunderground v.1.15,2013-05-01 16:10:00,
2013-05-01 12:15:00,51.9,43.9,30.44,SW,229,10.0,13.0,74,0.00,,,0.00,Wunderground v.1.15,2013-05-01 16:15:00,
2013-05-01 12:20:00,52.2,44.2,30.44,WSW,248,9.0,11.0,74,0.00,,,0.00,Wunderground v.1.15,2013-05-01 16:20:00,
2013-05-01 12:25:00,52.5,45.2,30.44,SW,235,10.0,12.0,76,0.00,,,0.00,Wunderground v.1.15,2013-05-01 16:25:00,
2013-05-01 12:30:00,52.8,44.7,30.44,WSW,243,11.0,12.0,74,0.00,,,0.00,Wunderground v.1.15,2013-05-01 16:30:00,
2013-05-01 12:35:00,53.0,43.8,30.44,SW,218,12.0,12.0,71,0.00,,,0.00,Wunderground v.1.15,2013-05-01 16:35:00,
2013-05-01 12:40:00,53.4,45.0,30.44,SW,221,10.0,10.0,73,0.00,,,0.00,Wunderground v.1.15,2013-05-01 16:40:00,
2013-05-01 12:45:00,53.6,45.2,30.44,SW,214,9.0,12.0,73,0.00,,,0.00,Wunderground v.1.15,2013-05-01 16:45:00,
2013-05-01 12:49:00,53.6,45.2,30.44,WSW,248,10.0,11.0,73,0.00,,,0.00,Wunderground v.1.15,2013-05-01 16:49:00,
2013-05-01 12:54:00,53.2,44.8,30.44,SW,221,11.0,13.0,73,0.00,,,0.00,Wunderground v.1.15,2013-05-01 16:54:00,
2013-05-01 12:59:00,53.0,45.3,30.44,WSW,246,10.0,10.0,75,0.00,,,0.00,Wunderground v.1.15,2013-05-01 16:59:00,
2013-05-01 13:04:00,53.4,44.6,30.44,SSW,203,9.0,12.0,72,0.00,,,0.00,Wunderground v.1.15,2013-05-01 17:04:00,
2013-05-01 13:09:00,53.6,45.5,30.44,WSW,252,10.0,13.0,74,0.00,,,0.00,Wunderground v.1.15,2013-05-01 17:09:00,
2013-05-01 13:14:00,53.4,46.0,30.44,SSW,210,9.0,13.0,76,0.00,,,0.00,Wunderground v.1.15,2013-05-01 17:14:00,
2013-05-01 13:19:00,53.1,45.7,30.44,SSW,212,10.0,11.0,76,0.00,,,0.00,Wunderground v.1.15,2013-05-01 17:19:00,
2013-05-01 13:24:00,53.1,46.1,30.44,SSW,210,10.0,13.0,77,0.00,,,0.00,Wunderground v.1.15,2013-05-01 17:24:00,
2013-05-01 13:29:00,52.6,45.9,30.44,WSW,253,8.0,11.0,78,0.00,,,0.00,Wunderground v.1.15,2013-05-01 17:29:00,
2013-05-01 13:34:00,52.8,45.8,30.43,WSW,242,12.0,15.0,77,0.00,,,0.00,Wunderground v.1.15,2013-05-01 17:34:00,
2013-05-01 13:39:00,52.5,45.8,30.43,SW,222,14.0,14.0,78,0.00,,,0.00,Wunderground v.1.15,2013-05-01 17:39:00,
2013-05-01 13:44:00,52.6,46.6,30.43,SW,218,8.0,14.0,80,0.00,,,0.00,Wunderground v.1.15,2013-05-01 17:44:00,
2013-05-01 13:49:00,52.4,45.7,30.43,SW,229,14.0,14.0,78,0.00,,,0.00,Wunderground v.1.15,2013-05-01 17:49:00,
2013-05-01 13:54:00,52.0,46.0,30.44,WSW,238,13.0,15.0,80,0.00,,,0.00,Wunderground v.1.15,2013-05-01 17:54:00,
2013-05-01 13:59:00,51.6,46.3,30.43,WSW,239,14.0,15.0,82,0.00,,,0.00,Wunderground v.1.15,2013-05-01 17:59:00,
2013-05-01 14:04:00,51.6,46.6,30.43,SW,215,13.0,16.0,83,0.00,,,0.00,Wunderground v.1.15,2013-05-01 18:04:00,
2013-05-01 14:09:00,51.3,46.3,30.44,SW,236,13.0,14.0,83,0.00,,,0.00,Wunderground v.1.15,2013-05-01 18:09:00,
2013-05-01 14:14:00,51.1,46.4,30.43,WSW,249,15.0,17.0,84,0.00,,,0.00,Wunderground v.1.15,2013-05-01 18:14:00,
2013-05-01 14:19:00,51.1,46.4,30.43,WSW,240,14.0,17.0,84,0.00,,,0.00,Wunderground v.1.15,2013-05-01 18:19:00,
2013-05-01 14:24:00,51.2,46.5,30.44,SW,231,9.0,16.0,84,0.00,,,0.00,Wunderground v.1.15,2013-05-01 18:24:00,
2013-05-01 14:29:00,51.5,46.5,30.43,SW,218,10.0,16.0,83,0.00,,,0.00,Wunderground v.1.15,2013-05-01 18:29:00,
2013-05-01 14:34:00,51.6,46.3,30.43,WSW,237,14.0,15.0,82,0.00,,,0.00,Wunderground v.1.15,2013-05-01 18:34:00,
2013-05-01 14:39:00,51.5,45.9,30.43,WSW,252,15.0,16.0,81,0.00,,,0.00,Wunderground v.1.15,2013-05-01 18:39:00,
2013-05-01 14:44:00,51.8,46.8,30.43,West,266,9.0,16.0,83,0.00,,,0.00,Wunderground v.1.15,2013-05-01 18:44:00,
2013-05-01 14:49:00,51.6,46.3,30.43,WSW,255,13.0,16.0,82,0.00,,,0.00,Wunderground v.1.15,2013-05-01 18:49:00,
2013-05-01 14:54:00,51.6,46.6,30.43,WSW,248,16.0,16.0,83,0.00,,,0.00,Wunderground v.1.15,2013-05-01 18:54:00,
2013-05-01 14:59:00,51.3,46.3,30.43,West,259,15.0,16.0,83,0.00,,,0.00,Wunderground v.1.15,2013-05-01 18:59:00,
2013-05-01 15:04:00,51.2,46.2,30.42,SW,230,15.0,18.0,83,0.00,,,0.00,Wunderground v.1.15,2013-05-01 19:04:00,
2013-05-01 15:09:00,51.2,46.2,30.42,WSW,255,12.0,18.0,83,0.00,,,0.00,Wunderground v.1.15,2013-05-01 19:09:00,
2013-05-01 15:14:00,51.3,46.3,30.42,WSW,245,13.0,17.0,83,0.00,,,0.00,Wunderground v.1.15,2013-05-01 19:14:00,
2013-05-01 15:19:00,51.2,46.2,30.42,West,260,15.0,17.0,83,0.00,,,0.00,Wunderground v.1.15,2013-05-01 19:19:00,
2013-05-01 15:24:00,51.2,45.9,30.42,West,271,12.0,17.0,82,0.00,,,0.00,Wunderground v.1.15,2013-05-01 19:24:00,
2013-05-01 15:29:00,51.3,45.7,30.42,WSW,247,14.0,17.0,81,0.00,,,0.00,Wunderground v.1.15,2013-05-01 19:29:00,
2013-05-01 15:34:00,51.4,45.8,30.42,West,262,14.0,18.0,81,0.00,,,0.00,Wunderground v.1.15,2013-05-01 19:34:00,
2013-05-01 15:39:00,51.5,45.2,30.42,West,263,15.0,18.0,79,0.00,,,0.00,Wunderground v.1.15,2013-05-01 19:39:00,
2013-05-01 15:44:00,51.7,45.7,30.42,West,269,13.0,17.0,80,0.00,,,0.00,Wunderground v.1.15,2013-05-01 19:44:00,
2013-05-01 15:49:00,51.9,45.6,30.41,WSW,246,17.0,17.0,79,0.00,,,0.00,Wunderground v.1.15,2013-05-01 19:49:00,
2013-05-01 15:54:00,51.8,45.8,30.42,West,259,12.0,18.0,80,0.00,,,0.00,Wunderground v.1.15,2013-05-01 19:54:00,
2013-05-01 15:59:00,51.8,45.5,30.42,WSW,255,18.0,18.0,79,0.00,,,0.00,Wunderground v.1.15,2013-05-01 19:59:00,
2013-05-01 16:04:00,51.7,45.4,30.42,West,259,15.0,18.0,79,0.00,,,0.00,Wunderground v.1.15,2013-05-01 20:04:00,
2013-05-01 16:09:00,51.7,45.7,30.42,West,262,12.0,19.0,80,0.00,,,0.00,Wunderground v.1.15,2013-05-01 20:09:00,
2013-05-01 16:14:00,51.7,45.7,30.42,West,260,16.0,17.0,80,0.00,,,0.00,Wunderground v.1.15,2013-05-01 20:14:00,
2013-05-01 16:19:00,51.7,46.1,30.42,WSW,252,15.0,18.0,81,0.00,,,0.00,Wunderground v.1.15,2013-05-01 20:19:00,
2013-05-01 16:24:00,51.8,45.5,30.42,West,267,15.0,17.0,79,0.00,,,0.00,Wunderground v.1.15,2013-05-01 20:24:00,
2013-05-01 16:29:00,51.9,45.6,30.42,West,261,11.0,18.0,79,0.00,,,0.00,Wunderground v.1.15,2013-05-01 20:29:00,
2013-05-01 16:34:00,52.2,45.5,30.42,West,263,15.0,17.0,78,0.00,,,0.00,Wunderground v.1.15,2013-05-01 20:34:00,
2013-05-01 16:39:00,52.2,45.2,30.41,West,262,17.0,18.0,77,0.00,,,0.00,Wunderground v.1.15,2013-05-01 20:39:00,
2013-05-01 16:44:00,52.2,45.5,30.41,West,260,17.0,19.0,78,0.00,,,0.00,Wunderground v.1.15,2013-05-01 20:44:00,
2013-05-01 16:49:00,52.3,44.3,30.42,West,262,15.0,19.0,74,0.00,,,0.00,Wunderground v.1.15,2013-05-01 20:49:00,
2013-05-01 16:54:00,52.3,44.3,30.42,West,263,15.0,18.0,74,0.00,,,0.00,Wunderground v.1.15,2013-05-01 20:54:00,
2013-05-01 16:59:00,52.4,44.0,30.41,WSW,255,16.0,18.0,73,0.00,,,0.00,Wunderground v.1.15,2013-05-01 20:59:00,
2013-05-01 17:04:00,52.4,44.7,30.42,West,263,13.0,18.0,75,0.00,,,0.00,Wunderground v.1.15,2013-05-01 21:04:00,
2013-05-01 17:09:00,52.5,44.8,30.42,WSW,254,12.0,18.0,75,0.00,,,0.00,Wunderground v.1.15,2013-05-01 21:09:00,
2013-05-01 17:14:00,52.5,44.8,30.42,WSW,253,13.0,16.0,75,0.00,,,0.00,Wunderground v.1.15,2013-05-01 21:14:00,
2013-05-01 17:19:00,52.4,44.7,30.42,WSW,248,18.0,18.0,75,0.00,,,0.00,Wunderground v.1.15,2013-05-01 21:19:00,
2013-05-01 17:24:00,52.1,44.8,30.42,West,259,13.0,18.0,76,0.00,,,0.00,Wunderground v.1.15,2013-05-01 21:24:00,
2013-05-01 17:29:00,52.0,45.0,30.42,West,260,15.0,18.0,77,0.00,,,0.00,Wunderground v.1.15,2013-05-01 21:29:00,
2013-05-01 17:34:00,52.1,45.1,30.42,West,266,14.0,18.0,77,0.00,,,0.00,Wunderground v.1.15,2013-05-01 21:34:00,
2013-05-01 17:39:00,52.4,44.4,30.42,WSW,255,14.0,18.0,74,0.00,,,0.00,Wunderground v.1.15,2013-05-01 21:39:00,
2013-05-01 17:44:00,52.6,44.2,30.42,West,263,13.0,15.0,73,0.00,,,0.00,Wunderground v.1.15,2013-05-01 21:44:00,
2013-05-01 17:49:00,52.8,44.4,30.42,West,262,12.0,16.0,73,0.00,,,0.00,Wunderground v.1.15,2013-05-01 21:49:00,
2013-05-01 17:54:00,52.8,44.7,30.42,WSW,256,12.0,14.0,74,0.00,,,0.00,Wunderground v.1.15,2013-05-01 21:54:00,
2013-05-01 17:59:00,52.6,44.9,30.42,WSW,253,13.0,15.0,75,0.00,,,0.00,Wunderground v.1.15,2013-05-01 21:59:00,
2013-05-01 18:04:00,52.6,45.6,30.42,WSW,257,13.0,16.0,77,0.00,,,0.00,Wunderground v.1.15,2013-05-01 22:04:00,
2013-05-01 18:09:00,52.4,45.7,30.42,WSW,246,12.0,16.0,78,0.00,,,0.00,Wunderground v.1.15,2013-05-01 22:09:00,
2013-05-01 18:14:00,52.1,45.4,30.42,WSW,250,11.0,14.0,78,0.00,,,0.00,Wunderground v.1.15,2013-05-01 22:14:00,
2013-05-01 18:19:00,52.1,45.4,30.42,West,263,12.0,14.0,78,0.00,,,0.00,Wunderground v.1.15,2013-05-01 22:19:00,
2013-05-01 18:24:00,52.4,45.1,30.42,West,267,11.0,13.0,76,0.00,,,0.00,Wunderground v.1.15,2013-05-01 22:24:00,
2013-05-01 18:29:00,52.7,45.0,30.42,West,269,9.0,13.0,75,0.00,,,0.00,Wunderground v.1.15,2013-05-01 22:29:00,
2013-05-01 18:34:00,52.8,45.1,30.42,West,274,11.0,12.0,75,0.00,,,0.00,Wunderground v.1.15,2013-05-01 22:34:00,
2013-05-01 18:39:00,52.4,45.7,30.42,West,267,10.0,13.0,78,0.00,,,0.00,Wunderground v.1.15,2013-05-01 22:39:00,
2013-05-01 18:44:00,52.1,46.1,30.42,West,267,9.0,10.0,80,0.00,,,0.00,Wunderground v.1.15,2013-05-01 22:44:00,
2013-05-01 18:49:00,51.8,45.8,30.42,West,277,9.0,11.0,80,0.00,,,0.00,Wunderground v.1.15,2013-05-01 22:49:00,
2013-05-01 18:54:00,51.6,46.0,30.42,West,269,10.0,10.0,81,0.00,,,0.00,Wunderground v.1.15,2013-05-01 22:54:00,
2013-05-01 18:59:00,51.4,46.1,30.42,West,277,10.0,11.0,82,0.00,,,0.00,Wunderground v.1.15,2013-05-01 22:59:00,
2013-05-01 19:04:00,51.3,46.0,30.41,West,277,11.0,11.0,82,0.00,,,0.00,Wunderground v.1.15,2013-05-01 23:04:00,
2013-05-01 19:09:00,51.2,45.6,30.41,West,277,12.0,12.0,81,0.00,,,0.00,Wunderground v.1.15,2013-05-01 23:09:00,
2013-05-01 19:14:00,51.3,45.7,30.40,West,277,14.0,15.0,81,0.00,,,0.00,Wunderground v.1.15,2013-05-01 23:14:00,
2013-05-01 19:19:00,51.4,45.4,30.41,West,275,13.0,15.0,80,0.00,,,0.00,Wunderground v.1.15,2013-05-01 23:19:00,
2013-05-01 19:24:00,51.5,45.2,30.41,West,270,12.0,15.0,79,0.00,,,0.00,Wunderground v.1.15,2013-05-01 23:24:00,
2013-05-01 19:29:00,52.1,43.0,30.41,West,271,12.0,15.0,71,0.00,,,0.00,Wunderground v.1.15,2013-05-01 23:29:00,
2013-05-01 19:34:00,52.9,41.8,30.41,West,267,11.0,16.0,66,0.00,,,0.00,Wunderground v.1.15,2013-05-01 23:34:00,
2013-05-01 19:39:00,53.2,42.1,30.41,West,270,13.0,16.0,66,0.00,,,0.00,Wunderground v.1.15,2013-05-01 23:39:00,
2013-05-01 19:44:00,53.0,43.5,30.41,West,270,11.0,14.0,70,0.00,,,0.00,Wunderground v.1.15,2013-05-01 23:44:00,
2013-05-01 19:49:00,52.8,43.3,30.41,West,267,12.0,15.0,70,0.00,,,0.00,Wunderground v.1.15,2013-05-01 23:49:00,
2013-05-01 19:54:00,52.6,44.5,30.41,West,269,13.0,14.0,74,0.00,,,0.00,Wunderground v.1.15,2013-05-01 23:54:00,
2013-05-01 19:59:00,52.2,44.9,30.41,West,269,13.0,14.0,76,0.00,,,0.00,Wunderground v.1.15,2013-05-01 23:59:00,
2013-05-01 20:04:00,52.0,45.0,30.41,West,270,12.0,14.0,77,0.00,,,0.00,Wunderground v.1.15,2013-05-02 00:04:00,
2013-05-01 20:09:00,51.8,45.2,30.41,West,269,12.0,14.0,78,0.00,,,0.00,Wunderground v.1.15,2013-05-02 00:09:00,
2013-05-01 20:14:00,52.1,44.8,30.41,West,271,11.0,14.0,76,0.00,,,0.00,Wunderground v.1.15,2013-05-02 00:14:00,
2013-05-01 20:19:00,52.0,45.0,30.41,West,267,12.0,14.0,77,0.00,,,0.00,Wunderground v.1.15,2013-05-02 00:19:00,
2013-05-01 20:24:00,51.8,45.2,30.41,West,267,12.0,13.0,78,0.00,,,0.00,Wunderground v.1.15,2013-05-02 00:24:00,
2013-05-01 20:29:00,51.8,45.8,30.41,West,277,12.0,13.0,80,0.00,,,0.00,Wunderground v.1.15,2013-05-02 00:29:00,
2013-05-01 20:34:00,51.4,46.1,30.41,West,275,10.0,12.0,82,0.00,,,0.00,Wunderground v.1.15,2013-05-02 00:34:00,
2013-05-01 20:39:00,51.1,46.4,30.42,West,271,11.0,12.0,84,0.00,,,0.00,Wunderground v.1.15,2013-05-02 00:39:00,
2013-05-01 20:44:00,50.8,46.1,30.41,West,279,10.0,11.0,84,0.00,,,0.00,Wunderground v.1.15,2013-05-02 00:44:00,
2013-05-01 20:49:00,50.9,46.2,30.41,WNW,284,10.0,11.0,84,0.00,,,0.00,Wunderground v.1.15,2013-05-02 00:49:00,
2013-05-01 20:54:00,51.2,46.2,30.41,WNW,284,10.0,11.0,83,0.00,,,0.00,Wunderground v.1.15,2013-05-02 00:54:00,
2013-05-01 20:59:00,51.5,46.2,30.42,WNW,285,10.0,11.0,82,0.00,,,0.00,Wunderground v.1.15,2013-05-02 00:59:00,
2013-05-01 21:04:00,52.0,46.0,30.42,WNW,287,11.0,12.0,80,0.00,,,0.00,Wunderground v.1.15,2013-05-02 01:04:00,
2013-05-01 21:09:00,52.2,46.2,30.42,WNW,291,11.0,12.0,80,0.00,,,0.00,Wunderground v.1.15,2013-05-02 01:09:00,
2013-05-01 21:14:00,52.2,45.9,30.42,WNW,298,12.0,12.0,79,0.00,,,0.00,Wunderground v.1.15,2013-05-02 01:14:00,
2013-05-01 21:19:00,52.7,45.3,30.42,WNW,297,13.0,13.0,76,0.00,,,0.00,Wunderground v.1.15,2013-05-02 01:19:00,
2013-05-01 21:24:00,53.3,45.2,30.42,WNW,298,14.0,15.0,74,0.00,,,0.00,Wunderground v.1.15,2013-05-02 01:24:00,
2013-05-01 21:29:00,53.4,45.3,30.41,WNW,298,13.0,15.0,74,0.00,,,0.00,Wunderground v.1.15,2013-05-02 01:29:00,
2013-05-01 21:34:00,53.6,45.2,30.41,WNW,302,13.0,14.0,73,0.00,,,0.00,Wunderground v.1.15,2013-05-02 01:34:00,
2013-05-01 21:39:00,53.5,45.4,30.42,WNW,302,12.0,14.0,74,0.00,,,0.00,Wunderground v.1.15,2013-05-02 01:39:00,
2013-05-01 21:44:00,53.2,45.5,30.42,NW,305,12.0,14.0,75,0.00,,,0.00,Wunderground v.1.15,2013-05-02 01:44:00,
2013-05-01 21:49:00,53.3,45.2,30.41,NW,309,12.0,14.0,74,0.00,,,0.00,Wunderground v.1.15,2013-05-02 01:49:00,
2013-05-01 21:54:00,53.6,44.4,30.41,NW,312,12.0,13.0,71,0.00,,,0.00,Wunderground v.1.15,2013-05-02 01:54:00,
2013-05-01 21:59:00,54.1,43.4,30.42,NW,316,13.0,13.0,67,0.00,,,0.00,Wunderground v.1.15,2013-05-02 01:59:00,
2013-05-01 22:04:00,54.4,42.5,30.42,NW,309,12.0,13.0,64,0.00,,,0.00,Wunderground v.1.15,2013-05-02 02:04:00,
2013-05-01 22:09:00,54.8,41.2,30.42,NW,314,12.0,13.0,60,0.00,,,0.00,Wunderground v.1.15,2013-05-02 02:09:00,
2013-05-01 22:14:00,55.0,40.9,30.42,NW,312,12.0,12.0,59,0.00,,,0.00,Wunderground v.1.15,2013-05-02 02:14:00,
2013-05-01 22:19:00,54.9,41.3,30.42,NW,313,11.0,12.0,60,0.00,,,0.00,Wunderground v.1.15,2013-05-02 02:19:00,
2013-05-01 22:24:00,55.1,39.2,30.42,NW,316,11.0,12.0,55,0.00,,,0.00,Wunderground v.1.15,2013-05-02 02:24:00,
2013-05-01 22:29:00,55.2,39.3,30.42,NW,311,10.0,12.0,55,0.00,,,0.00,Wunderground v.1.15,2013-05-02 02:29:00,
2013-05-01 22:33:00,54.9,39.0,30.42,NW,304,10.0,11.0,55,0.00,,,0.00,Wunderground v.1.15,2013-05-02 02:33:00,
2013-05-01 22:38:00,54.6,39.7,30.42,WNW,303,9.0,11.0,57,0.00,,,0.00,Wunderground v.1.15,2013-05-02 02:38:00,
2013-05-01 22:43:00,54.7,39.8,30.42,NW,304,9.0,10.0,57,0.00,,,0.00,Wunderground v.1.15,2013-05-02 02:43:00,
2013-05-01 22:48:00,54.3,42.0,30.42,WNW,289,8.0,10.0,63,0.00,,,0.00,Wunderground v.1.15,2013-05-02 02:48:00,
2013-05-01 22:53:00,53.6,42.9,30.42,WNW,283,8.0,9.0,67,0.00,,,0.00,Wunderground v.1.15,2013-05-02 02:53:00,
2013-05-01 22:58:00,53.6,40.5,30.41,WNW,291,9.0,9.0,61,0.00,,,0.00,Wunderground v.1.15,2013-05-02 02:58:00,
2013-05-01 23:03:00,54.1,40.1,30.41,WNW,294,9.0,9.0,59,0.00,,,0.00,Wunderground v.1.15,2013-05-02 03:03:00,
2013-05-01 23:08:00,54.3,40.3,30.41,WNW,291,9.0,9.0,59,0.00,,,0.00,Wunderground v.1.15,2013-05-02 03:08:00,
2013-05-01 23:13:00,53.9,41.6,30.41,WNW,287,9.0,9.0,63,0.00,,,0.00,Wunderground v.1.15,2013-05-02 03:13:00,
2013-05-01 23:18:00,53.7,41.8,30.41,WNW,295,9.0,10.0,64,0.00,,,0.00,Wunderground v.1.15,2013-05-02 03:18:00,
2013-05-01 23:23:00,53.9,41.6,30.41,WNW,294,9.0,10.0,63,0.00,,,0.00,Wunderground v.1.15,2013-05-02 03:23:00,
2013-05-01 23:28:00,53.8,43.1,30.41,WNW,291,9.0,10.0,67,0.00,,,0.00,Wunderground v.1.15,2013-05-02 03:28:00,
2013-05-01 23:33:00,53.3,43.8,30.41,WNW,288,9.0,9.0,70,0.00,,,0.00,Wunderground v.1.15,2013-05-02 03:33:00,
2013-05-01 23:38:00,53.1,43.6,30.41,WNW,293,9.0,9.0,70,0.00,,,0.00,Wunderground v.1.15,2013-05-02 03:38:00,
2013-05-01 23:43:00,53.0,43.8,30.41,WNW,293,9.0,9.0,71,0.00,,,0.00,Wunderground v.1.15,2013-05-02 03:43:00,
2013-05-01 23:48:00,53.0,43.5,30.41,WNW,293,9.0,9.0,70,0.00,,,0.00,Wunderground v.1.15,2013-05-02 03:48:00,
2013-05-01 23:53:00,52.9,43.0,30.41,WNW,293,8.0,9.0,69,0.00,,,0.00,Wunderground v.1.15,2013-05-02 03:53:00,
2013-05-01 23:58:00,52.8,43.7,30.41,WNW,298,9.0,9.0,71,0.00,,,0.00,Wunderground v.1.15,2013-05-02 03:58:00,